Regional Weather Roundup
Issued by NWS

Home | Current Version | Previous Version | Graphics & Text | Print | Product List | Glossary On
Versions: 1 2 3 4 5 6 7 8 9 10 11 12 13 14 15 16 17 18 19 20 21 22 23 24 25 26 27 28 29 30 31 32 33 34 35 36 37 38 39 40 41 42 43 44 45 46 47 48 49 50
000
ASUS45 KCYS 271710
RWRWY

WYOMING REGIONAL WEATHER ROUNDUP
NATIONAL WEATHER SERVICE CHEYENNE WY
1000 AM MST TUE JAN 27 2015

NOTE:  "FAIR" INDICATES FEW OR NO CLOUDS BELOW 12,000 FEET
WITH NO SIGNIFICANT WEATHER AND/OR OBSTRUCTIONS TO VISIBILITY.

WYZ001-271800-
YELLOWSTONE NATIONAL PARK

CITY           SKY/WX    TMP DP  RH WIND       PRES   REMARKS
LK YELLOWSTONE   N/A     18  16  92 CALM      30.25S
W YELLOWSTONE  NOT AVBL

$$
WYZ002>013-054>058-071-098>099-271800-
NORTHERN WYOMING

CITY           SKY/WX    TMP DP  RH WIND       PRES   REMARKS
JACKSON        FOG       12  10  92 CALM      30.28S VSB 1/4
CODY           FAIR      43  27  52 CALM      30.03F
GREYBULL       FAIR      22  20  92 E7        30.06F WCI  13
WORLAND        FAIR      24  20  84 S7        30.04F WCI  16
SHERIDAN       FAIR      45  31  58 CALM      29.95F
BUFFALO        FAIR      61  23  23 S3        30.01S
GILLETTE       FAIR      57  28  33 SW18      29.98F
HULETT           N/A    N/A N/A N/A MISG        N/A
NEWCASTLE      FAIR      48  32  53 CALM      30.07S

$$
WYZ014>020-022>026-101>103-271800-
CENTRAL WYOMING

CITY           SKY/WX    TMP DP  RH WIND       PRES   REMARKS
BIG PINEY      FAIR      20  15  81 E5        30.26S WCI  13
PINEDALE       FAIR      19  12  73 NW5       30.26F WCI  13
DUBOIS         FAIR      37  19  48 NW23      30.16R WCI  26
LANDER         FAIR      29  23  78 NW3       30.13S
RIVERTON       FAIR      33  27  78 CALM      30.14S
CASPER         FAIR      52  25  35 SW20G25   30.12S
DOUGLAS        FAIR      54  24  31 NW5       30.10S

$$
WYZ021-027>030-104>119-271800-
SOUTHERN WYOMING

CITY           SKY/WX    TMP DP  RH WIND       PRES   REMARKS
EVANSTON       FAIR      41  24  51 CALM      30.24R
KEMMERER       FAIR      30  21  69 N7        30.25S WCI  23
FORT BRIDGER   FAIR      33  32  95 CALM      30.27F
ROCK SPRINGS   FAIR      37  28  70 CALM      30.24S
DIXON          FAIR      31  22  68 CALM      30.34S
RAWLINS        FAIR      49  23  36 SW13      30.25F
SARATOGA       FAIR      43  23  45 S15       30.28F
LARAMIE        FAIR      52  21  29 SW15      30.23F
CHEYENNE       FAIR      61  18  18 W18G26    30.16S
TORRINGTON     FAIR      48  31  51 CALM      30.08S
PINE BLUFFS    FAIR      59  23  25 W5        30.13F

$$



USA.gov is the U.S. government's official web portal to all federal, state and local government web resources and services.